INTELSAT 701 1 22871U 93066A 21021.20756145 .00000101 00000-0 00000-0 0 9992 2 22871 6.7253 60.6004 0004106 319.9268 223.4610 0.99319495 99500 INTELSAT 26 (JCSAT 4) 1 24732U 97007A 21021.72754873 .00000010 00000-0 00000+0 0 9990 2 24732 9.3454 41.7126 0004046 300.5886 104.5359 1.00273159 87505 GALAXY 25 (TELSTAR 5) 1 24812U 97026A 21021.24632626 .00000162 00000-0 00000-0 0 9997 2 24812 2.4410 88.5730 0002798 204.9666 308.8223 1.00274329 86592 INTELSAT 5 (PAS 5) 1 24916U 97046A 21021.58655829 .00000096 00000-0 00000-0 0 9997 2 24916 6.1555 64.3321 0003125 220.8046 270.1723 1.00272796 85849 INTELSAT 805 1 25371U 98037A 21021.58848366 -.00000243 00000-0 00000-0 0 9999 2 25371 2.9751 86.0318 0009776 112.8112 293.2603 0.99482223 82740 AFRISTAR 1 25515U 98063A 21021.40668375 -.00000235 00000-0 00000-0 0 9990 2 25515 5.9377 63.8469 0002879 307.1679 223.5960 0.99009243 81020 INTELSAT 8 (PAS 8) 1 25522U 98065A 21021.18583966 -.00000148 00000-0 00000-0 0 9990 2 25522 4.0872 81.4848 0285194 251.0113 153.7487 0.95186270 26038 GALAXY 11 1 26038U 99071A 21021.42688160 -.00000153 00000-0 00000-0 0 9996 2 26038 1.7445 94.7317 0000446 258.1384 188.6918 1.00271752 77301 SIRIUS 1 1 26390U 00035A 21021.40092617 .00000103 00000-0 00000-0 0 9997 2 26390 59.3767 199.4531 0002584 61.3996 300.2430 1.57877287 40754 INTELSAT 9 (PAS 9) 1 26451U 00043A 21021.56490578 -.00000281 00000-0 00000-0 0 9997 2 26451 6.1436 64.5291 0002660 227.5483 342.4209 1.00273340 24361 INTELSAT 12 (PAS 12) 1 26590U 00068A 21021.78493927 .00000021 00000-0 00000+0 0 9993 2 26590 3.4446 84.3409 0002705 212.0933 171.7105 1.00271604 74023 INTELSAT 1R (PAS 1R) 1 26608U 00072A 21021.80352057 -.00000130 00000-0 00000+0 0 9991 2 26608 3.2022 84.3880 0000371 158.3376 324.9998 1.00271708 73873 INTELSAT 10 (PAS 10) 1 26766U 01019A 21021.20738698 .00000130 00000-0 00000-0 0 9991 2 26766 4.3864 77.4623 0003097 208.8047 316.6476 1.00270779 25835 INTELSAT 901 1 26824U 01024A 21021.76670694 -.00000191 00000-0 00000+0 0 9991 2 26824 0.0504 257.7972 0000465 15.5716 96.4932 1.00270744 71817 INTELSAT 902 1 26900U 01039A 21021.76217067 -.00000273 00000-0 00000+0 0 9994 2 26900 1.1428 94.5252 0003067 217.0038 34.0839 1.00271318 70994 DIRECTV 4S 1 26985U 01052A 21021.57853875 -.00000168 00000-0 00000-0 0 9998 2 26985 1.2348 93.5414 0003204 288.3519 56.6617 0.99262905 31480 INTELSAT 904 1 27380U 02007A 21021.76627076 -.00000205 00000-0 00000+0 0 9993 2 27380 1.9803 91.2273 0003561 219.7500 56.6906 1.00271979 69302 INTELSAT 903 1 27403U 02016A 21021.80727171 -.00000175 00000-0 00000+0 0 9997 2 27403 2.7657 86.6899 0004143 209.8667 291.4949 0.99024754 68834 DIRECTV 5 (TEMPO 1) 1 27426U 02023A 21021.62351826 -.00000045 00000-0 00000-0 0 9997 2 27426 0.0144 30.5777 0003241 273.1757 291.7774 1.00272385 68462 INTELSAT 905 1 27438U 02027A 21021.76723036 -.00000175 00000-0 00000+0 0 9998 2 27438 1.8014 92.0667 0002823 215.1442 65.8111 1.00270991 68199 GALAXY 3C 1 27445U 02030A 21021.36458927 -.00000140 00000-0 00000+0 0 9992 2 27445 0.0206 322.4269 0001752 9.3127 185.3697 1.00267423 68173 INTELSAT 906 1 27513U 02041A 21021.42587569 .00000024 00000-0 00000-0 0 9993 2 27513 0.8068 96.6384 0003114 211.9565 29.8449 1.00272362 67244 INTELSAT 907 1 27683U 03007A 21021.52618972 .00000080 00000-0 00000-0 0 9990 2 27683 0.7048 89.6657 0002128 287.0638 5.9676 0.99156114 65623 GALAXY 12 1 27715U 03013B 21021.67467289 .00000067 00000-0 00000+0 0 9996 2 27715 2.0158 90.6564 0002009 217.7223 286.7254 1.00272342 65225 GALAXY 23 (TELSTAR 13) 1 27854U 03034A 21021.03021056 .00000022 00000-0 00000-0 0 9993 2 27854 0.0063 243.7711 0002895 57.7923 68.9237 1.00272736 63955 HORIZONS 1 (GALAXY 13) 1 27954U 03044A 21021.60322656 .00000059 00000-0 00000-0 0 9998 2 27954 0.0022 11.6913 0001428 172.1110 27.4904 1.00270069 26797 DIRECTV 7S 1 28238U 04016A 21021.51218083 -.00000054 00000-0 00000-0 0 9998 2 28238 0.0578 93.1844 0002768 246.4220 212.6706 1.00464256 61286 INTELSAT 1002 1 28358U 04022A 21021.37271743 -.00000001 00000-0 00000+0 0 9995 2 28358 0.0579 260.5086 0002479 34.5825 319.0277 1.00272125 60842 XM-3 1 28626U 05008A 21021.51577333 -.00000194 00000-0 00000-0 0 9992 2 28626 0.0190 66.2249 0000789 23.4415 131.9600 1.00266509 22843 SPACEWAY 1 1 28644U 05015A 21021.76794568 -.00000127 00000-0 00000+0 0 9993 2 28644 1.6476 92.0384 0001605 50.5451 14.6240 0.98491258 57676 DIRECTV 8 1 28659U 05019A 21021.67659208 .00000012 00000-0 00000+0 0 9996 2 28659 0.0192 294.3266 0003016 10.9976 300.4268 1.00273441 57409 GALAXY 28 (IA 8) 1 28702U 05022A 21021.51577333 -.00000175 00000-0 00000+0 0 9991 2 28702 0.0163 63.2845 0001870 254.8722 259.5853 1.00271657 57047 GALAXY 14 1 28790U 05030A 21021.02942542 .00000046 00000-0 00000-0 0 9998 2 28790 0.0213 304.0201 0001187 356.6027 65.5710 1.00269708 56525 GALAXY 15 1 28884U 05041A 21021.40646019 .00000089 00000-0 00000-0 0 9993 2 28884 0.0106 265.9042 0001734 24.3533 204.0229 1.00272477 55898 SPACEWAY 2 1 28903U 05046B 21021.60087119 .00000114 00000-0 00000-0 0 9991 2 28903 0.7024 92.9403 0000276 104.7546 0.8843 1.00271304 31562 GALAXY 16 1 29236U 06023A 21021.52180053 -.00000116 00000-0 00000-0 0 9992 2 29236 0.0178 60.0106 0002839 247.3178 262.5904 1.00272099 53351 DIRECTV 9S 1 29494U 06043A 21021.03396170 -.00000104 00000-0 00000-0 0 9992 2 29494 0.0282 128.4714 0003025 172.4479 90.6960 1.00272440 31603 XM-4 1 29520U 06049A 21021.62070148 -.00000012 00000-0 00000-0 0 9995 2 29520 0.0118 113.0427 0000232 229.3550 246.9342 1.00272678 31693 GALAXY 17 1 31307U 07016B 21021.51577333 -.00000163 00000-0 00000-0 0 9999 2 31307 0.0135 352.3048 0003407 323.0274 260.4103 1.00270931 50155 DIRECTV 10 1 31862U 07032A 21021.62911413 -.00000092 00000-0 00000+0 0 9996 2 31862 0.0147 231.1162 0000081 138.6504 235.0896 1.00272696 49623 SPACEWAY 3 1 32018U 07036A 21021.52132771 -.00000141 00000-0 00000+0 0 9990 2 32018 0.0084 206.1297 0000240 169.0087 198.6644 1.00272508 49345 INTELSAT 11 (PAS 11) 1 32253U 07044B 21021.76356645 -.00000258 00000-0 00000+0 0 9993 2 32253 0.0188 64.4836 0001980 245.3146 43.4232 1.00272850 48755 HORIZONS 2 1 32388U 07063B 21021.78903937 -.00000171 00000-0 00000+0 0 9991 2 32388 0.0163 18.8943 0002856 285.4810 185.8613 1.00272443 48106 DIRECTV 11 1 32729U 08013A 21021.52180079 -.00000115 00000-0 00000-0 0 9991 2 32729 0.0272 202.0083 0000280 111.6362 256.1095 1.00273151 25815 GALAXY 18 1 32951U 08024A 21021.67580696 .00000036 00000-0 00000+0 0 9995 2 32951 0.0129 31.0151 0003073 269.0171 301.4836 1.00271557 46300 INTELSAT 25(PROTOSTAR 1) 1 33153U 08034A 21021.76583458 -.00000213 00000-0 00000+0 0 9998 2 33153 0.0022 155.9812 0003102 142.8590 66.6838 1.00272298 45868 GALAXY 19 1 33376U 08045A 21021.52371032 -.00000128 00000-0 00000-0 0 9990 2 33376 0.0143 80.3296 0003306 233.4086 258.8750 1.00271395 45167 SIRIUS FM-5 1 35493U 09034A 21021.51577333 -.00000190 00000-0 00000+0 0 9990 2 35493 0.0123 349.7017 0000305 1.0737 229.8299 1.00273900 42198 INTELSAT 14 1 36097U 09064A 21021.76321750 -.00000263 00000-0 00000+0 0 9992 2 36097 0.0148 51.6914 0002619 252.8346 46.5627 1.00270797 40911 INTELSAT 15 1 36106U 09067A 21021.78912660 -.00000174 00000-0 00000+0 0 9995 2 36106 0.0134 64.4762 0002298 242.2210 183.8772 1.00272161 40829 DIRECTV 12 1 36131U 09075A 21021.54440681 -.00000094 00000-0 00000+0 0 9996 2 36131 0.0414 224.8293 0000350 102.5134 247.0222 1.00275369 40601 INTELSAT 16 1 36397U 10006A 21021.51021601 -.00000234 00000-0 00000-0 0 9997 2 36397 0.0170 59.0860 0002224 241.1706 288.2876 1.00272376 40055 XM-5 1 37185U 10053A 21021.51577333 -.00000194 00000-0 00000-0 0 9998 2 37185 0.0240 170.6098 0001304 236.0040 174.9086 1.00270420 37704 INTELSAT 17 1 37238U 10065B 21021.52618972 .00000009 00000-0 00000-0 0 9990 2 37238 0.0382 235.8286 0002883 82.0258 58.6476 1.00271311 33613 INTELSAT NEW DAWN 1 37392U 11016A 21021.35605213 .00000165 00000-0 00000-0 0 9996 2 37392 0.0269 180.9525 0000532 56.6508 44.2683 1.00273918 33524 INTELSAT 18 1 37834U 11056A 21021.80805684 .00000064 00000-0 00000+0 0 9992 2 37834 0.0189 53.6333 0001922 249.1239 289.5015 1.00272663 34073 INTELSAT 22 1 38098U 12011A 21021.52618972 -.00000048 00000-0 00000-0 0 9992 2 38098 0.0325 88.0564 0002826 219.3172 75.2551 1.00270000 32037 INTELSAT 19 1 38356U 12030A 21021.80526529 -.00000046 00000-0 00000+0 0 9994 2 38356 0.0131 81.5846 0003127 228.4428 267.2272 1.00272805 31734 INTELSAT 20 1 38740U 12043A 21021.42692251 -.00000015 00000-0 00000-0 0 9996 2 38740 0.0123 82.9342 0001930 93.3860 166.8629 1.00272558 30966 INTELSAT 21 1 38749U 12045A 21021.50465889 -.00000274 00000-0 00000-0 0 9998 2 38749 0.0115 26.5827 0002096 273.0980 305.0564 1.00270803 30766 INTELSAT 23 1 38867U 12057A 21021.49910432 -.00000274 00000-0 00000-0 0 9999 2 38867 0.0150 77.5374 0002073 216.8316 313.3994 1.00268727 30202 SIRIUS FM-6 1 39360U 13058A 21021.61977703 -.00000006 00000-0 00000-0 0 9991 2 39360 0.0377 86.8583 0000899 10.3990 130.8781 1.00270239 26286 INTELSAT 30 1 40271U 14062A 21021.47202193 -.00000141 00000-0 00000+0 0 9997 2 40271 0.0164 62.6779 0001911 58.2245 74.9937 1.00272605 22985 INTELSAT 34 1 40874U 15039A 21021.50413806 -.00000275 00000-0 00000+0 0 9998 2 40874 0.0182 63.2446 0000633 149.7015 34.1065 1.00270284 19834 INTELSAT 29E 1 41308U 16004A 21021.35605213 .00000148 00000-0 00000-0 0 9991 2 41308 1.5571 92.5187 0011803 320.3197 231.1766 1.00624301 18425 INTELSAT 31 1 41581U 16035A 21021.82489340 -.00000140 00000-0 00000+0 0 9993 2 41581 0.0151 232.7059 0002480 335.7385 114.8298 1.00270921 16916 INTELSAT 36 1 41747U 16053A 21021.52618972 -.00000014 00000-0 00000-0 0 9990 2 41747 0.0094 32.6946 0001431 332.6518 13.6457 1.00271168 16183 INTELSAT 33E 1 41748U 16053B 21021.42526502 .00000059 00000-0 00000-0 0 9995 2 41748 0.0151 35.2996 0001883 255.5769 43.1985 1.00271568 16463 INTELSAT 32E 1 41945U 17007B 21021.49910432 -.00000259 00000-0 00000-0 0 9993 2 41945 0.0165 69.5787 0000648 134.0458 53.9273 1.00270697 14457 INTELSAT 35E 1 42818U 17041A 21021.49910432 -.00000228 00000-0 00000-0 0 9997 2 42818 0.0397 226.5900 0001881 73.5110 326.1470 1.00271290 13091 INTELSAT 37E 1 42950U 17059A 21021.76853890 -.00000130 00000-0 00000+0 0 9998 2 42950 0.0169 90.3648 0002653 203.2267 86.4083 1.00271927 12276